COSMOS 886 DEB, 18518

Orbit data source: Space-Track

COSMOS 886 DEB, 18518 is space debris in LEO originally from a launch on Mon, 27 Dec 1976 UTC launched from the Tyuratam Missile And Space Complex (TTMTR). Debris objects in space refer to the collection of defunct objects orbiting the Earth. Examples of debris include non-operational satellites, rocket bodies, and fragments generated from explosions, collisions, or faulty payload assembly.

Loading next visibility...
Identifier
18518, 1976-126BW
Orbit
LEO
Country
Flag of CISCIS
Related business
Manufacturer
Unknown
Mission
Spacecraft
Bus & Motor
Unknown
Mass
Unknown
Launch date (UTC)
1976-12-27 (49 years ago)
Launch vehicle
Unknown
Launch site
Tyuratam Missile And Space Complex (TTMTR)
Object type
Payload
Rocket body
Debris
Shape & HBR
Unknown shape, 1.1 m
Radar Cross Section
Medium (>0.1 m² and <1 m²)

Expand to show TLE details & history
Last TLE update: 2 days ago

TLE from 2 days ago
0 COSMOS 886 DEB
1 18518U 76126BW  26173.43994421  .00000601  00000-0  95898-3 0  9999
2 18518  65.7583 100.2713 0711728  51.4518  50.6209 12.81717133749335
Epoch: 2026-06-22T10:33Z
TLE epoch observation values (Epoch: 2026-06-22T10:33:31.179Z)
Latitude
59.82778°
Longitude
160.8663°
Altitude
1,020.493 km
Speed
7.5 km/s
True Right ascension
15h 19m 29s
True Declination
59° 41' 00"
Sunlit
Object was in daylight at epoch
Visualization orbit readout
Latitude
Unknown
Longitude
Unknown
Altitude
Unknown
Speed
Unknown
Apparent Right ascension
Unknown
Apparent Declination
Unknown
Sunlit
N/A
Visualization observer readout
Local Sidereal Time
03:14:06
Azimuth
Unknown
Elevation
Unknown
Doppler factor
Unknown
Orbital elements
Apogee altitude
1,881.991 km
Perigee altitude
784.322 km
Semi-major axis
7,711.294 km
Eccentricity
0.07117
Inclination
65.7583°
RAAN
100.2713°
Arg. of periapsis
51.4518°
True anomaly
57.28603°
Mean anomaly
50.6209°
Eccentric anomaly
53.91649°
Mean motion
3.20518 °/min
Orbital period
112.32 mins
BSTAR
0.00095898
Loading maneuver chart data...
Computing Atmospheric mass density...

Documentation

Showing up to 5 results
|